AirNav   Bose ProFlight Series 2 Headset
 
 816 users online  

1FL8 Cape Canaveral Hospital Heliport
Cocoa Beach, Florida, USA

GOING TO COCOA BEACH?


FAA INFORMATION EFFECTIVE 30 JANUARY 2020

Location

FAA Identifier: 1FL8
Lat/Long: 28-21-40.0000N 080-37-20.0000W
28-21.666667N 080-37.333333W
28.3611111,-80.6222222
(estimated)
Elevation: 6 ft. / 2 m (estimated)
Variation: 05W (1995)
From city: 1 mile W of COCOA BEACH, FL
Time zone: UTC -5 (UTC -4 during Daylight Saving Time)
Zip code: 32931

Heliport Operations

Heliport use: Private use. Permission required prior to landing
Activation date: 01/2000
Control tower: no
ARTCC: JACKSONVILLE CENTER
FSS: SAINT PETERSBURG FLIGHT SERVICE STATION
Attendance: UNATNDD
Wind indicator: lighted
Segmented circle: no
Lights: FOR PERIMETER LGTS CALL 321-799-7120.

Heliport Communications

WX AWOS-3 at COI (4 nm W): 119.025 (321-986-8864)
WX AWOS-3PT at TIX (13 nm NW): 120.625 (321-567-6090)
WX ASOS at MLB (16 nm S): PHONE 321-951-7575
WX AWOS-3 at X21 (19 nm NW): 119.725 (321-385-0384)

Nearby radio navigation aids

VOR radial/distance  VOR name  Freq  Var
MLBr010/15.4MELBOURNE VOR/DME110.0007W
ORLr106/39.1ORLANDO VORTAC112.2000E

Heliport Services

Runway Information

Helipad H1

Dimensions: 50 x 50 ft. / 15 x 15 m
Surface: concrete
Runway edge lights: PERI
Latitude: 28-21.666667N
Longitude: 080-37.333333W
Elevation: 6.0 ft.
Traffic pattern: leftleft

Heliport Ownership and Management from official FAA records

Ownership: Privately-owned
Owner: HEALTH FIRST
CAPE CANAVERAL HOSPITAL, 701 WEST COCOA BEACH CAUSEWAY
COCOA BEACH, FL 32931
Phone 321-799-7111
Manager: ROBIN RICE SAFETY/SECURITY OFFICER
1350 S. HICKORY ST.
MELBOURNE, FL 32901
Phone (321) 434-3220

Additional Remarks

FOR CD CTC ORLANDO APCH AT 407-852-7553.

Instrument Procedures

There are no published instrument procedures at 1FL8.

Some nearby airports with instrument procedures:

KCOI - Merritt Island Airport (4 nm W)
KXMR - Cape Canaveral Air Force Station Skid Strip (7 nm NE)
KCOF - Patrick Air Force Base (8 nm S)
KTIX - Space Coast Regional Airport (13 nm NW)
KMLB - Melbourne International Airport (16 nm S)
KTTS - NASA Shuttle Landing Facility (16 nm N)
X21 - Arthur Dunn Air Park (19 nm NW)
 
Loc | Ops | Rwys | IFR | FBO | Links
Com | Nav | Svcs | Stats | Notes


 
Area around 1FL8 (Cape Canaveral Hospital Heliport)
 
Road maps at: MapQuest Bing Google
 
Aerial photo
WARNING: Photo may not be current or correct
Aerial photo of 1FL8 (Cape Canaveral Hospital Heliport)
Photo by Don F. Pease
Photo taken 20-Nov-2006
looking south.

Do you have a better or more recent aerial photo of Cape Canaveral Hospital Heliport that you would like to share? If so, please send us your photo.

 
Sectional chart

 
Airport distance calculator
Flying to Cape Canaveral Hospital Heliport? Find the distance to fly.

From to 1FL8

Sunrise and sunset
Times for 23-Feb-2020
 Local
(UTC-5)
 Zulu
(UTC)
Morning civil twilight06:3111:31
Sunrise06:5411:54
Sunset18:1723:17
Evening civil twilight18:4123:41

Current date and time
Zulu (UTC)  23-Feb-2020 13:22:43
Local (UTC-5)  23-Feb-2020 08:22:43
 
METAR
KXMR 
8nm NE 
231256Z AUTO 03006KT 4SM BR CLR 16/14 A3023 RMK AO2 SLP240 T01620142 $
KCOF 
9nm S 
231256Z AUTO 29005KT 10SM CLR 17/15 A3024 RMK AO2 SLP245 T01690147 $
KTIX 
13nm NW 
231250Z VRB03KT 7SM BKN070 16/12 A3025
KMLB 
16nm S 
231253Z 26004KT 9SM CLR 13/13 A3024 RMK AO2 SLP241 T01280128 $
KTTS 
16nm N 
231256Z AUTO 03004KT 10SM SCT070 16/15 M RMK AO2 SLPNO T01630148 VISNO RWY15 CHINO RWY15 $
TAF
KCOF 
9nm S 
231100Z 2311/2417 VRB06KT 9999 SCT050 QNH3017INS BECMG 2316/2317 10012KT 9999 SCT060 QNH3015INS BECMG 2404/2405 13008KT 9999 FEW045 SCT180 QNH3010INS TX23/2318Z TN16/2411Z
KTIX 
13nm NW 
231120Z 2312/2412 35005KT P6SM FEW050 FM231500 09009KT P6SM SCT035 FM240000 10006KT P6SM FEW035 SCT250
KMLB 
16nm S 
231120Z 2312/2412 VRB05KT P6SM FEW060 FM231500 09010KT P6SM SCT035 SCT250 FM240000 11006KT P6SM SCT035 SCT250
NOTAMs
Click for the latest NOTAMs
NOTAMs are issued by the DoD/FAA and will open in a separate window not controlled by AirNav.

 

 
 

Would you like to see your business listed on this page?

 If your business provides an interesting product or service to pilots, flight crews, aircraft, or users of the Cape Canaveral Hospital Heliport, you should consider listing it here.  To start the listing process, click on the button below
 
Add a business
 

Other Pages about Cape Canaveral Hospital Heliport

Update a link
 
Copyright © AirNav, LLC. All rights reserved. Privacy Policy  Contact